time_stamp(utc),avg(mph),gust(mph),direction(deg),12m_air_temp(f),sonic_u(cm/s),sonic_v(cm/s),sonic_w(cm/s),pressure,2m_air_temp(f),pyranometer(W/m^2)
"2018-10-12 00:02:07+00",6.6,8.6,,74.8,-63,-266,-7,1002.04,74.5,0
"2018-10-12 00:07:07+00",7.6,9.6,,74.7,-88,-302,-2,1002.11,74.5,0
"2018-10-12 00:12:07+00",7.0,8.0,,74.7,-77,-282,-5,1002.04,74.5,0
"2018-10-12 00:17:07+00",6.0,8.0,,74.7,-33,-246,4,1001.89,74.5,0
"2018-10-12 00:22:07+00",8.8,9.8,,74.6,-48,-369,-17,1002.08,74.4,0
"2018-10-12 00:27:07+00",9.7,11.7,,74.5,-199,-253,-78,1002.12,74.3,0
"2018-10-12 00:32:07+00",10.2,12.2,,74.6,-44,-427,-21,1001.98,74.4,0
"2018-10-12 00:37:07+00",7.1,9.1,,74.5,-51,-282,-10,1001.74,74.2,0
"2018-10-12 00:42:07+00",6.2,7.2,,74.4,-29,-244,0,1001.75,74.1,0
"2018-10-12 00:47:07+00",4.9,7.9,,74.3,-16,-196,-6,1001.67,74,0
"2018-10-12 00:52:07+00",4.0,5.0,,74.2,-10,-165,-1,1001.64,73.9,0
"2018-10-12 00:57:07+00",3.1,4.1,,74.1,8,-123,-3,1001.61,73.8,0
"2018-10-12 01:02:07+00",4.0,5.0,,74,59,-155,-2,1001.56,73.8,0
"2018-10-12 01:07:07+00",3.2,4.2,,73.9,67,-119,0,1001.47,73.7,0
"2018-10-12 01:12:07+00",4.4,5.4,,73.9,53,-175,-3,1001.56,73.6,0
"2018-10-12 01:17:07+00",4.2,5.2,,73.8,91,-159,-3,1001.36,73.6,0
"2018-10-12 01:22:07+00",3.7,4.7,,73.9,78,-129,-2,1001.17,73.6,0
"2018-10-12 01:27:07+00",4.1,4.1,,73.9,88,-151,-1,1001.23,73.6,0
"2018-10-12 01:32:07+00",5.3,5.3,,73.9,204,-96,-2,1001.03,73.5,0
"2018-10-12 01:37:07+00",5.6,6.6,,73.8,188,-144,3,1001.22,73.5,0
"2018-10-12 01:42:07+00",4.6,5.6,,73.7,167,-102,-2,1001.24,73.5,0
"2018-10-12 01:47:07+00",4.1,5.1,,73.7,164,-60,3,1001.12,73.4,0
"2018-10-12 01:52:07+00",5.3,5.3,,73.6,205,-93,1,1001.04,73.4,0
"2018-10-12 01:57:07+00",5.0,6.0,,73.6,216,-21,9,1000.96,73.4,0
"2018-10-12 02:02:07+00",6.7,6.7,,73.5,290,32,15,1000.63,73.3,0
"2018-10-12 02:07:07+00",7.1,8.1,,73.5,316,55,24,1000.21,73.3,0
"2018-10-12 02:12:07+00",7.4,8.4,,73.3,327,42,14,999.99,73.2,0
"2018-10-12 02:17:07+00",7.5,8.5,,73.3,330,46,18,999.74,73.1,0
"2018-10-12 02:22:07+00",7.7,8.7,,73.2,340,4,15,999.86,73.1,0
"2018-10-12 02:27:07+00",7.6,8.6,,73.2,332,-4,13,999.76,73.1,0
"2018-10-12 02:32:07+00",8.6,9.6,,73.2,377,-5,13,999.6,73,0
"2018-10-12 02:37:07+00",7.8,9.8,,73.1,337,-33,14,999.61,73,0
"2018-10-12 02:42:07+00",9.2,11.2,,73.1,411,-43,12,999.4,72.9,0
"2018-10-12 02:47:07+00",9.2,10.2,,73,410,-25,14,999.37,72.9,0
"2018-10-12 02:52:07+00",9.5,10.5,,73.1,416,-85,6,999.52,72.9,0
"2018-10-12 02:57:07+00",8.8,9.8,,73.2,379,-84,14,999.35,73,0
"2018-10-12 03:02:07+00",9.2,11.2,,73.3,383,-131,-1,999.24,73,0
"2018-10-12 03:07:07+00",9.1,11.1,,73.3,392,-92,3,999.03,73,0
"2018-10-12 03:12:07+00",10.7,11.7,,73.4,425,-196,5,999.03,73,0
"2018-10-12 03:17:07+00",11.9,14.9,,73.5,436,-274,-1,998.99,73.1,0
"2018-10-12 03:22:07+00",11.1,12.1,,73.6,413,-268,23,998.82,73.2,0
"2018-10-12 03:27:07+00",13.3,15.3,,73.8,425,-396,-4,998.66,73.4,0
"2018-10-12 03:32:07+00",13.2,16.2,,73.9,383,-425,-17,998.62,73.5,0
"2018-10-12 03:37:07+00",12.8,14.8,,73.8,945,-1394,565,998.26,73.4,0
"2018-10-12 03:42:07+00",13.9,15.9,,73.6,680,-1072,317,997.93,73.3,0
"2018-10-12 03:47:07+00",15.2,17.2,,73.5,502,-423,14,997.99,73.1,0
"2018-10-12 03:52:07+00",10.8,11.8,,73.4,392,-262,17,997.97,73.2,0
"2018-10-12 03:57:07+00",13.2,15.2,,73.4,504,-304,2,997.87,73.2,0
"2018-10-12 04:02:07+00",11.7,14.7,,73.2,504,-111,11,997.51,73,0
"2018-10-12 04:07:07+00",11.0,14.0,,73.1,476,-75,11,997.37,72.6,0
"2018-10-12 04:12:07+00",9.2,12.2,,73,364,-151,15,997.13,72.5,0
"2018-10-12 04:17:07+00",17.0,20.0,,73.5,723,-216,25,996.77,72.9,0
"2018-10-12 04:22:07+00",18.4,20.4,,74,774,-251,-4,996.58,72.8,0
"2018-10-12 04:27:07+00",15.5,18.5,,74.3,659,-201,12,996.41,73,0
"2018-10-12 04:32:07+00",16.3,19.3,,75.1,616,-381,19,996.32,73.7,0
"2018-10-12 04:37:07+00",17.1,19.1,,75,1886,-2192,1162,996,73.8,0
"2018-10-12 04:42:07+00",15.6,18.6,,74.8,684,-47,42,996.01,73.5,0
"2018-10-12 04:47:07+00",11.6,12.6,,75.2,511,4,29,995.86,73.6,0
"2018-10-12 04:52:07+00",12.2,13.2,,74.9,524,39,24,995.81,73.6,0
"2018-10-12 04:57:07+00",11.1,13.1,,74.6,719,-454,238,995.78,73.6,0
"2018-10-12 05:02:07+00",12.2,15.2,,74.6,587,-46,87,995.4,73.4,0
"2018-10-12 05:07:07+00",11.8,12.8,,74.7,516,51,34,995.26,73.4,0
"2018-10-12 05:12:07+00",10.8,12.8,,74.7,468,95,33,995.17,73.4,0
"2018-10-12 05:17:07+00",11.8,12.8,,74.3,508,156,37,995.12,73.1,0
"2018-10-12 05:22:07+00",10.5,13.5,,74.3,463,73,39,995.09,73.1,0
"2018-10-12 05:27:07+00",11.9,12.9,,74.3,516,139,27,995.04,73.4,0
"2018-10-12 05:32:07+00",15.2,18.2,,74.4,648,208,35,995.11,73.5,0
"2018-10-12 05:37:07+00",9.9,11.9,,74.3,166,383,8,994.91,73.4,0
"2018-10-12 05:42:07+00",17.5,19.5,,73.3,1055,-1021,959,994.89,72.9,0
"2018-10-12 05:47:07+00",12.0,15.0,,71.4,-149,503,34,994.72,71.1,0
"2018-10-12 05:52:07+00",20.4,23.4,,71,732,-360,705,994.75,70.6,0
"2018-10-12 05:57:07+00",17.0,20.0,,70.9,599,42,379,994.72,70.4,0
"2018-10-12 06:02:07+00",24.2,29.2,,70.7,-710,2383,-753,994.62,70.1,0
"2018-10-12 06:07:07+00",17.3,23.3,,70.4,644,101,305,994.96,69.7,0
"2018-10-12 06:12:07+00",17.5,25.5,,69.8,253,589,78,994.85,69.2,0
"2018-10-12 06:17:07+00",24.2,29.2,,69.2,-625,2180,-738,994.33,68.6,0
"2018-10-12 06:22:07+00",25.2,32.2,,69.3,-122,1717,-444,994.41,68.8,0
"2018-10-12 06:27:07+00",27.0,31.0,,69.4,-427,2757,-939,994.42,68.8,0
"2018-10-12 06:32:07+00",21.9,25.9,,69.6,187,947,-47,994.59,69,0
"2018-10-12 06:37:07+00",32.1,34.1,,69.8,-270,2807,-930,994.37,68.9,0
"2018-10-12 06:42:07+00",26.0,31.0,,69.8,-582,2583,-880,994.5,68.9,0
"2018-10-12 06:47:07+00",24.8,27.8,,70,-359,2291,-716,994.43,69.2,0
"2018-10-12 06:52:07+00",18.8,21.8,,70.1,819,-330,646,994.5,69.3,0
"2018-10-12 06:57:07+00",21.4,24.4,,70.2,46,1501,-381,994.64,69.5,0
"2018-10-12 07:02:07+00",24.9,29.9,,70.2,-195,2336,-830,994.7,69.3,0
"2018-10-12 07:07:07+00",22.2,29.2,,70,106,994,-73,994.47,69.3,0
"2018-10-12 07:12:07+00",21.4,26.4,,69.8,87,1200,-188,994.39,69.2,0
"2018-10-12 07:17:07+00",24.5,27.5,,69.8,-991,3145,-1191,994.14,69.2,0
"2018-10-12 07:22:07+00",22.0,25.0,,69.7,137,712,124,994.25,69.1,0
"2018-10-12 07:27:07+00",22.8,28.8,,69.6,-462,1811,-420,994.25,69,0
"2018-10-12 07:32:07+00",38.4,44.4,,65,-652,3020,-852,994.27,66.1,0
"2018-10-12 07:37:07+00",37.4,43.4,,63.4,-1298,3960,-1315,994.28,64.5,0
"2018-10-12 07:42:07+00",31.0,36.0,,63.3,-1521,3957,-1420,994.13,63.9,0
"2018-10-12 07:47:07+00",37.1,45.1,,63.4,-328,2846,-755,994.01,63.5,0
"2018-10-12 07:52:07+00",30.6,36.6,,63.6,-767,3082,-997,994.16,63.3,0
"2018-10-12 07:57:07+00",35.2,38.2,,63.7,-505,2976,-919,994.29,63.2,0
"2018-10-12 08:02:07+00",33.5,38.5,,63.7,97,2112,-476,994.42,63.1,0
"2018-10-12 08:07:07+00",29.0,35.0,,63.7,-694,2990,-992,994.49,63.1,0
"2018-10-12 08:12:07+00",27.4,32.4,,63.7,-954,3113,-1060,994.46,63.1,0
"2018-10-12 08:17:07+00",26.2,32.2,,63.7,-708,2876,-980,994.41,63,0
"2018-10-12 08:22:07+00",30.8,36.8,,63.7,-1514,3691,-1318,994.39,62.8,0
"2018-10-12 08:27:07+00",29.1,37.1,,63.7,-1439,3819,-1524,994.27,62.6,0
"2018-10-12 08:32:07+00",30.9,36.9,,63.8,-1732,4485,-1677,994.3,62.8,0
"2018-10-12 08:37:07+00",30.7,37.7,,63.9,-1054,2873,-964,994.3,63.1,0
"2018-10-12 08:42:07+00",25.7,30.7,,63.9,-1144,2725,-912,994.32,63.2,0
"2018-10-12 08:47:07+00",28.6,36.6,,63.9,-1539,3826,-1408,994.09,63.1,0
"2018-10-12 08:52:07+00",32.3,39.3,,64.1,-1064,3374,-1179,993.92,63,0
"2018-10-12 08:57:07+00",26.5,31.5,,64.1,-819,2336,-666,993.91,63.1,0
"2018-10-12 09:02:07+00",29.8,34.8,,64,16304,0,341,994.19,62.9,-0.1
"2018-10-12 09:07:07+00",28.1,34.1,,63.7,-1894,4072,-1544,994.24,62.6,0
"2018-10-12 09:32:07+00",33.9,42.9,,62.1,-2468,4137,-1376,995.4,61.8,0
"2018-10-12 09:37:07+00",36.2,43.2,,61.5,-2388,4331,-1576,995.67,60.9,0
"2018-10-12 09:42:07+00",31.4,38.4,,60.7,-1990,3521,-1258,995.77,60.5,0
"2018-10-12 09:47:07+00",31.8,36.8,,60.3,-1999,3547,-1217,996.06,60.2,0
"2018-10-12 09:52:07+00",31.1,44.1,,60,-1233,3683,-1174,995.77,60.1,0
"2018-10-12 09:57:07+00",37.9,45.9,,59.9,-2179,4192,-1482,996.05,59.7,0
"2018-10-12 10:02:07+00",26.7,34.7,,60.6,16429,0,393,996.29,60,-0.1
"2018-10-12 10:07:07+00",32.4,40.4,,60.7,-1416,2399,-668,996.59,59.8,0
"2018-10-12 10:12:07+00",35.4,41.4,,60.6,-2213,3712,-1221,996.67,59.5,0
"2018-10-12 10:17:07+00",34.1,40.1,,60.5,-1187,1787,-261,996.99,59.5,0
"2018-10-12 10:22:07+00",33.8,38.8,,60.4,-914,1211,105,997.27,59.6,0
"2018-10-12 10:27:07+00",31.8,38.8,,60.4,-883,1128,87,997.4,59.6,0
"2018-10-12 10:32:07+00",25.1,34.1,,60.3,-684,896,87,997.49,59.6,0
"2018-10-12 10:37:07+00",26.3,30.3,,60.2,-703,963,88,997.56,59.6,0
"2018-10-12 10:42:07+00",26.8,33.8,,60.2,-777,915,60,997.82,59.6,0
"2018-10-12 10:47:07+00",27.2,32.2,,60.2,-693,985,83,998.05,59.6,0
"2018-10-12 10:52:07+00",24.8,27.8,,60.1,-673,879,60,998.09,59.6,0
"2018-10-12 10:57:07+00",26.1,29.1,,60.2,-732,933,77,998.28,59.6,0
"2018-10-12 11:02:07+00",29.3,34.3,,60.3,-847,1001,57,998.41,59.7,0
"2018-10-12 11:07:07+00",27.7,34.7,,60.2,-756,976,45,998.75,59.7,0
"2018-10-12 11:12:07+00",27.6,33.6,,60.1,-728,998,64,998.93,59.6,0
"2018-10-12 11:17:07+00",24.0,26.0,,60.1,-648,857,73,999.1,59.6,0
"2018-10-12 11:22:07+00",23.3,28.3,,60,-630,819,88,999.27,59.6,0
"2018-10-12 11:27:07+00",27.3,34.3,,60.1,-750,976,64,999.35,59.6,0
"2018-10-12 11:32:07+00",24.9,27.9,,59.9,-648,889,65,999.58,59.5,0
"2018-10-12 11:37:07+00",24.5,26.5,,60,-693,849,72,999.7,59.5,0.1
"2018-10-12 11:42:07+00",23.9,31.9,,60.1,-632,861,53,999.88,59.7,18.6
"2018-10-12 11:47:07+00",25.9,32.9,,60.1,-687,944,73,999.98,59.8,23.9
"2018-10-12 11:52:07+00",23.1,28.1,,60.1,-623,829,67,1000.28,59.8,0
"2018-10-12 11:57:07+00",22.1,24.1,,60.3,-595,789,53,1000.45,59.9,0
"2018-10-12 12:02:07+00",26.0,28.0,,60.1,-684,949,59,1000.62,59.7,0
"2018-10-12 12:07:07+00",26.8,30.8,,59.9,-755,924,45,1000.82,59.6,0
"2018-10-12 12:12:07+00",24.2,28.2,,60,-599,905,47,1000.95,59.6,0
"2018-10-12 12:17:07+00",23.2,26.2,,60,-562,865,70,1001.06,59.6,1
"2018-10-12 12:22:07+00",24.8,27.8,,60,-643,895,43,1001.2,59.8,93.2
"2018-10-12 12:27:07+00",24.8,28.8,,60.2,-672,906,80,1001.34,60.4,105.1
"2018-10-12 12:32:07+00",23.1,29.1,,60.4,-617,853,78,1001.44,60.7,115.1
"2018-10-12 12:37:07+00",20.9,23.9,,60.5,-507,770,73,1001.56,60.8,123.9
"2018-10-12 12:42:07+00",31.1,34.1,,60.5,-806,1139,53,1001.6,60.9,136.6
"2018-10-12 12:47:07+00",28.5,30.5,,60.7,-772,1014,84,1001.76,61.2,147.7
"2018-10-12 12:52:07+00",26.5,29.5,,60.8,-750,934,85,1001.93,61.5,179.7
"2018-10-12 12:57:07+00",28.1,31.1,,60.5,-763,992,58,1002,61.5,175.4
"2018-10-12 13:02:07+00",24.2,27.2,,60.8,-735,804,91,1002.04,61.6,198.3
"2018-10-12 13:07:07+00",34.7,39.7,,60.4,-720,1336,41,1002.2,61.4,196.6
"2018-10-12 13:12:07+00",29.2,32.2,,59.9,-636,1129,73,1002.38,60.9,195.3
"2018-10-12 13:17:07+00",32.8,36.8,,59.9,-791,1227,80,1002.49,60.7,201.8
"2018-10-12 13:22:07+00",38.9,44.9,,59.7,-981,1404,77,1002.59,60.4,212.8
"2018-10-12 13:27:07+00",34.0,43.0,,59.5,-750,1306,97,1002.64,60.3,221.9
"2018-10-12 13:32:07+00",31.5,41.5,,59.8,-789,1159,98,1002.71,60.5,228.2
"2018-10-12 13:37:07+00",34.9,38.9,,59.5,-772,1338,79,1002.76,60.4,235
"2018-10-12 13:42:07+00",31.7,35.7,,59.6,-834,1155,72,1002.81,60.4,242.5
"2018-10-12 13:47:07+00",33.0,39.0,,59.6,-716,1267,65,1002.9,60.4,249.2
"2018-10-12 13:52:07+00",36.5,41.5,,59.6,-791,1409,81,1003.07,60.6,247.7
"2018-10-12 13:57:07+00",33.5,38.5,,59.5,-783,1278,69,1003.07,60.6,261
"2018-10-12 14:02:07+00",29.6,35.6,,60.1,-876,1016,123,1003.13,61.1,254.1
"2018-10-12 14:07:07+00",27.8,32.8,,59.9,-669,1054,83,1003.32,61,275.9
"2018-10-12 14:12:07+00",34.0,37.0,,59.7,-711,1340,74,1003.3,61,283.4
"2018-10-12 14:17:07+00",29.3,34.3,,60,-613,1154,88,1003.33,61.3,289.9
"2018-10-12 14:22:07+00",32.4,38.4,,60,-884,1159,98,1003.35,61.2,297.7
"2018-10-12 14:27:07+00",30.0,38.0,,60,-805,1078,87,1003.45,61.4,303.2
"2018-10-12 14:32:07+00",25.9,28.9,,59.9,-696,933,101,1003.54,61.4,308.9
"2018-10-12 14:37:07+00",29.4,33.4,,60.1,-829,1035,97,1003.6,61.6,315.7
"2018-10-12 14:42:07+00",35.1,39.1,,60,-1052,1164,119,1003.69,61.5,322.7
"2018-10-12 14:47:07+00",31.6,33.6,,60.1,-997,1025,98,1003.8,61.5,327.9
"2018-10-12 14:52:07+00",31.1,36.1,,60.1,-1026,954,94,1003.9,61.6,334.6
"2018-10-12 14:57:07+00",30.4,35.4,,60.1,-828,1078,94,1003.97,61.7,343.1
"2018-10-12 15:02:07+00",31.1,35.1,,60.3,-894,1070,95,1004.07,61.8,345.7
"2018-10-12 15:07:07+00",29.1,34.1,,60.3,-756,1056,95,1004.12,62,350.5
"2018-10-12 15:12:07+00",27.6,32.6,,60.7,-794,940,87,1004.2,62.1,359
"2018-10-12 15:17:07+00",22.5,24.5,,60.7,-660,785,93,1004.34,62.3,359.8
"2018-10-12 15:22:07+00",23.7,27.7,,60.9,-698,799,90,1004.28,62.5,365.9
"2018-10-12 15:27:07+00",28.8,30.8,,60.4,-1006,834,79,1004.2,62.3,373.1
"2018-10-12 15:32:07+00",28.5,31.5,,60.5,-738,1054,71,1004.35,62.1,380.1
"2018-10-12 15:37:07+00",22.7,27.7,,60.6,-675,778,93,1004.45,62.3,382.3
"2018-10-12 15:42:07+00",26.9,29.9,,60.3,-678,988,86,1004.53,62.2,386.6
"2018-10-12 15:47:07+00",25.7,29.7,,60.3,-775,859,90,1004.69,62.2,392.3
"2018-10-12 15:52:07+00",28.1,31.1,,60.6,-897,881,91,1004.69,62.2,395.4
"2018-10-12 15:57:07+00",25.2,28.2,,60.3,-492,1004,65,1004.83,62.1,397.5
"2018-10-12 16:02:07+00",27.7,29.7,,60.2,-558,1091,63,1004.64,62.1,406.5
"2018-10-12 16:07:07+00",22.7,25.7,,60.2,-530,866,64,1004.78,62.1,379.1
"2018-10-12 16:12:07+00",22.5,25.5,,60.4,-462,882,66,1004.78,62.2,303.1
"2018-10-12 16:17:07+00",26.2,28.2,,60.6,-640,976,78,1004.92,62.1,296.5
"2018-10-12 16:22:07+00",22.6,25.6,,60.7,-652,776,69,1005.03,62.3,412.3
"2018-10-12 16:27:07+00",25.5,27.5,,60.7,-570,979,72,1004.98,62.4,423.2
"2018-10-12 16:32:07+00",17.0,21.0,,60.6,-493,576,78,1005.02,62.5,413.2
"2018-10-12 16:37:07+00",15.6,17.6,,60.8,-392,587,71,1004.93,62.5,347.9
"2018-10-12 16:42:07+00",21.2,24.2,,60.9,-718,631,76,1004.9,62.6,407.1
"2018-10-12 16:47:07+00",28.0,30.0,,60.9,-691,1045,103,1004.69,62.6,411.4
"2018-10-12 16:52:07+00",26.1,29.1,,60.6,-623,983,57,1004.88,62.3,409.5
"2018-10-12 16:57:07+00",28.4,30.4,,60.8,-894,919,95,1004.73,62.5,412.6
"2018-10-12 17:02:07+00",27.1,30.1,,60.8,-695,980,80,1004.74,62.4,409.5
"2018-10-12 17:07:07+00",24.7,28.7,,60.8,-957,616,102,1004.75,62.4,406.6
"2018-10-12 17:12:07+00",27.1,30.1,,61.3,-850,858,118,1004.71,62.7,404.3
"2018-10-12 17:17:07+00",29.3,32.3,,61,-982,891,84,1004.74,62.5,404.1
"2018-10-12 17:22:07+00",27.2,32.2,,60.9,-868,886,107,1004.83,62.4,398.8
"2018-10-12 17:27:07+00",25.7,28.7,,60.8,-638,951,62,1004.87,62.3,395.4
"2018-10-12 17:32:07+00",25.5,29.5,,60.8,-583,973,59,1004.82,62.3,391.8
"2018-10-12 17:37:07+00",30.0,35.0,,61.1,-693,1137,80,1004.65,62.4,389.5
"2018-10-12 17:42:07+00",26.0,30.0,,61,-655,961,57,1004.72,62.5,383.7
"2018-10-12 17:47:07+00",27.9,30.9,,61.1,-801,966,72,1004.72,62.5,380.9
"2018-10-12 17:52:07+00",24.4,28.4,,61,-770,774,60,1004.83,62.4,376.3
"2018-10-12 17:57:07+00",23.1,26.1,,61.2,-675,775,46,1004.82,62.5,372.8
"2018-10-12 18:02:07+00",19.4,24.4,,61.7,-605,621,69,1004.89,62.8,365.7
"2018-10-12 18:07:07+00",20.2,23.2,,61.6,-682,595,56,1004.91,63,360.7
"2018-10-12 18:12:07+00",23.9,27.9,,61.8,-805,731,76,1004.83,63,355.7
"2018-10-12 18:17:07+00",23.7,28.7,,61.5,-700,798,44,1004.87,62.9,351
"2018-10-12 18:22:07+00",27.1,29.1,,61.6,-744,952,57,1004.89,62.9,345.2
"2018-10-12 18:27:07+00",23.0,26.0,,61.6,-533,877,51,1004.98,63,337.2
"2018-10-12 18:32:07+00",22.3,26.3,,61.8,-505,843,39,1005.07,63.1,332.5
"2018-10-12 18:37:07+00",23.9,28.9,,61.9,-738,785,84,1004.96,63.3,328.2
"2018-10-12 18:42:07+00",25.4,29.4,,61.9,-876,745,55,1004.74,63.4,323.3
"2018-10-12 18:47:07+00",22.9,26.9,,62,-787,665,77,1004.74,63.5,316.1
"2018-10-12 18:52:07+00",19.3,24.3,,62.1,-695,525,66,1004.8,63.6,313.5
"2018-10-12 18:57:07+00",19.1,24.1,,62.1,-549,647,60,1004.89,63.7,304.4
"2018-10-12 19:02:07+00",15.7,19.7,,62,-417,566,61,1005.08,63.8,296.2
"2018-10-12 19:07:07+00",20.9,24.9,,62.2,-556,741,53,1004.95,63.9,289.7
"2018-10-12 19:12:07+00",17.4,21.4,,62.2,-585,535,83,1004.97,63.9,285.5
"2018-10-12 19:17:07+00",16.3,19.3,,62.2,-564,474,55,1005.01,64,278.9
"2018-10-12 19:22:07+00",20.9,23.9,,62.4,-284,880,23,1005.1,64.3,274.9
"2018-10-12 19:27:07+00",17.2,22.2,,62.6,-440,634,55,1005.15,64.4,265
"2018-10-12 19:32:07+00",19.5,22.5,,62.5,-369,784,45,1005.11,64.5,259.8
"2018-10-12 19:37:07+00",18.5,21.5,,62.7,-563,608,51,1005.15,64.6,251.2
"2018-10-12 19:42:07+00",15.0,17.0,,62.6,-288,600,63,1005.15,64.5,247.4
"2018-10-12 19:47:07+00",17.2,20.2,,62.5,-161,738,24,1005.08,64.7,240.2
"2018-10-12 19:52:07+00",14.4,16.4,,62.6,-427,493,80,1005.19,64.8,230.9
"2018-10-12 19:57:07+00",17.6,18.6,,62.5,-208,752,11,1005.13,64.8,226.3
"2018-10-12 20:02:07+00",17.7,19.7,,62.4,-277,728,26,1005.09,64.6,219.2
"2018-10-12 20:07:07+00",18.6,21.6,,62.4,-216,793,19,1005.22,64.7,210.4
"2018-10-12 20:12:07+00",15.2,19.2,,62.7,-190,625,54,1005.39,64.8,204.1
"2018-10-12 20:17:07+00",11.8,15.8,,62.5,-252,451,59,1005.31,64.7,192.9
"2018-10-12 20:22:07+00",16.9,19.9,,62.7,-326,667,46,1005.21,64.7,185.8
"2018-10-12 20:27:07+00",15.5,17.5,,62.6,-273,622,45,1005.27,64.7,178.5
"2018-10-12 20:32:07+00",11.3,15.3,,62.5,-198,463,28,1005.31,64.5,169.1
"2018-10-12 20:37:07+00",14.5,19.5,,62.6,-273,571,37,1005.23,64.8,159.4
"2018-10-12 20:42:07+00",18.2,20.2,,62.4,-225,770,48,1005.29,64.4,151.2
"2018-10-12 20:47:07+00",16.8,20.8,,62.3,-317,679,35,1005.43,64.2,141.9
"2018-10-12 20:52:07+00",17.8,19.8,,62.2,-172,762,29,1005.39,63.9,132.1
"2018-10-12 20:57:07+00",16.7,18.7,,62.1,-330,659,41,1005.57,63.7,122.1
"2018-10-12 21:02:07+00",19.3,21.3,,62.1,-339,792,27,1005.6,63.6,111.9
"2018-10-12 21:07:07+00",18.2,21.2,,62,-373,716,37,1005.79,63.4,101
"2018-10-12 21:12:07+00",13.8,17.8,,62,-183,588,22,1006.06,63.4,90.6
"2018-10-12 21:17:07+00",15.5,18.5,,61.8,-254,641,13,1006.05,63.2,80.1
"2018-10-12 21:22:07+00",13.3,15.3,,61.8,-259,534,51,1006.08,63.1,69.5
"2018-10-12 21:27:07+00",14.4,16.4,,61.6,-167,621,20,1006.18,63.1,60.1
"2018-10-12 21:32:07+00",14.4,16.4,,61.6,-220,585,35,1006.32,62.9,51.7
"2018-10-12 21:37:07+00",13.7,16.7,,61.5,-208,575,31,1006.37,62.7,40.2
"2018-10-12 21:42:07+00",13.8,15.8,,61.3,-251,554,27,1006.3,62.4,30.8
"2018-10-12 21:47:07+00",14.1,15.1,,61.2,-224,584,29,1006.23,62.2,21.8
"2018-10-12 21:52:07+00",11.8,12.8,,61,-255,465,44,1006.31,62,13.8
"2018-10-12 21:57:07+00",13.0,15.0,,60.8,-177,544,16,1006.17,61.7,4.6
"2018-10-12 22:02:07+00",10.8,12.8,,60.7,-143,447,24,1006.32,61.4,0.2
"2018-10-12 22:07:07+00",10.7,12.7,,60.5,-112,453,25,1006.24,61.2,0
"2018-10-12 22:12:07+00",11.2,13.2,,60.3,-249,416,31,1006.4,60.9,0
"2018-10-12 22:17:07+00",11.0,13.0,,60.2,-269,402,25,1006.38,60.5,0
"2018-10-12 22:22:07+00",12.2,15.2,,60.2,-284,456,34,1006.53,60.1,0
"2018-10-12 22:27:07+00",10.7,12.7,,59.8,-281,391,24,1006.78,59.7,0
"2018-10-12 22:32:07+00",12.4,14.4,,59.7,-314,451,23,1006.8,59.3,0
"2018-10-12 22:37:07+00",12.2,13.2,,59.6,-317,441,25,1007.02,59.1,0
"2018-10-12 22:42:07+00",10.0,12.0,,59.4,-282,341,38,1007.08,58.8,0
"2018-10-12 22:47:07+00",12.1,13.1,,59.5,-318,431,26,1007.02,58.7,0
"2018-10-12 22:52:07+00",9.3,11.3,,59.5,-248,324,15,1006.95,58.6,0
"2018-10-12 22:57:07+00",10.8,13.8,,59.5,-329,356,30,1007.03,58.7,0
"2018-10-12 23:02:07+00",12.0,14.0,,59.5,-390,352,18,1007.09,58.8,0
"2018-10-12 23:07:07+00",13.7,15.7,,59.3,-453,407,25,1007.25,58.8,0
"2018-10-12 23:12:07+00",13.4,14.4,,59.2,-460,382,28,1007.38,58.7,0
"2018-10-12 23:17:07+00",14.2,15.2,,59,-491,403,36,1007.47,58.6,0
"2018-10-12 23:22:07+00",13.8,15.8,,58.9,-456,410,41,1007.41,58.5,0
"2018-10-12 23:27:07+00",14.4,16.4,,58.7,-488,432,33,1007.53,58.3,0
"2018-10-12 23:32:07+00",15.3,17.3,,58.5,-532,454,32,1007.51,58.2,0
"2018-10-12 23:37:07+00",14.9,16.9,,58.5,-522,430,59,1007.54,58.1,0
"2018-10-12 23:42:07+00",13.7,15.7,,58.4,-431,432,55,1007.74,58.1,0
"2018-10-12 23:47:07+00",15.3,17.3,,58.2,-448,517,47,1007.8,58,0
"2018-10-12 23:52:07+00",14.8,16.8,,58.1,-476,463,40,1007.8,57.8,0
"2018-10-12 23:57:07+00",11.7,13.7,,57.9,-386,364,54,1007.78,57.7,0
